Time,TemperatureF,DewpointF,PressureIn,WindDirection,WindDirectionDegrees,WindSpeedMPH,WindSpeedGustMPH,Humidity,HourlyPrecipIn,Conditions,Clouds,dailyrainin,SoftwareType,DateUTC
2013-05-26 00:03:00,-999.0,-99.9,30.19,South,169,4.0,5.0,-999,-99.99,,,-99.99,,2013-05-26 04:03:00,
2013-05-26 00:13:00,-999.0,-99.9,30.19,SSE,162,5.0,5.0,-999,-99.99,,,-99.99,,2013-05-26 04:13:00,
2013-05-26 00:23:00,-999.0,-99.9,30.19,SSE,163,5.0,6.0,-999,-99.99,,,-99.99,,2013-05-26 04:23:00,
2013-05-26 00:33:00,67.0,-99.9,30.19,North,-999,-999.0,-999.0,-999,-99.99,,,-99.99,,2013-05-26 04:33:00,
2013-05-26 00:43:00,67.0,-99.9,30.19,North,-999,-999.0,-999.0,-999,-99.99,,,-99.99,,2013-05-26 04:43:00,
2013-05-26 00:52:00,-999.0,-99.9,30.19,South,171,7.0,10.0,-999,-99.99,,,-99.99,,2013-05-26 04:52:00,
2013-05-26 01:03:00,-999.0,-99.9,30.19,South,182,8.0,11.0,-999,-99.99,,,-99.99,,2013-05-26 05:03:00,
2013-05-26 01:12:00,68.0,-99.9,30.18,North,-999,-999.0,-999.0,-999,-99.99,,,-99.99,,2013-05-26 05:12:00,
2013-05-26 01:22:00,68.0,-99.9,30.18,North,-999,-999.0,-999.0,-999,-99.99,,,-99.99,,2013-05-26 05:22:00,
2013-05-26 01:32:00,-999.0,-99.9,30.18,SSW,195,10.0,12.0,-999,-99.99,,,-99.99,,2013-05-26 05:32:00,
2013-05-26 01:42:00,68.0,-99.9,30.18,SSW,202,8.0,12.0,-999,-99.99,,,-99.99,,2013-05-26 05:42:00,
2013-05-26 01:52:00,67.0,-99.9,30.18,North,-999,-999.0,-999.0,-999,-99.99,,,-99.99,,2013-05-26 05:52:00,
2013-05-26 02:01:00,-999.0,-99.9,30.17,SSW,208,6.0,8.0,-999,-99.99,,,-99.99,,2013-05-26 06:01:00,
2013-05-26 02:12:00,-999.0,-99.9,30.17,SSW,207,5.0,8.0,-999,-99.99,,,-99.99,,2013-05-26 06:12:00,
2013-05-26 02:22:00,67.0,-99.9,30.16,North,-999,-999.0,-999.0,-999,-99.99,,,-99.99,,2013-05-26 06:22:00,
2013-05-26 02:32:00,-999.0,-99.9,30.16,SSW,200,5.0,7.0,-999,-99.99,,,-99.99,,2013-05-26 06:32:00,
2013-05-26 02:42:00,67.0,-99.9,30.16,North,-999,-999.0,-999.0,-999,-99.99,,,-99.99,,2013-05-26 06:42:00,
2013-05-26 02:52:00,67.0,-99.9,30.16,SW,214,5.0,7.0,-999,-99.99,,,-99.99,,2013-05-26 06:52:00,
2013-05-26 03:02:00,-999.0,-99.9,30.16,SSW,213,5.0,7.0,-999,-99.99,,,-99.99,,2013-05-26 07:02:00,
2013-05-26 03:11:00,-999.0,-99.9,30.16,SW,214,4.0,6.0,-999,-99.99,,,-99.99,,2013-05-26 07:11:00,
2013-05-26 03:22:00,-999.0,-99.9,30.16,SW,219,4.0,5.0,-999,-99.99,,,-99.99,,2013-05-26 07:22:00,
2013-05-26 03:32:00,-999.0,-99.9,30.16,SW,227,2.0,4.0,-999,-99.99,,,-99.99,,2013-05-26 07:32:00,
2013-05-26 03:42:00,66.0,-99.9,30.16,North,-999,-999.0,-999.0,-999,-99.99,,,-99.99,,2013-05-26 07:42:00,
2013-05-26 03:52:00,66.0,-99.9,30.15,North,-999,-999.0,-999.0,-999,-99.99,,,-99.99,,2013-05-26 07:52:00,
2013-05-26 04:02:00,66.0,-99.9,30.15,North,-999,-999.0,-999.0,-999,-99.99,,,-99.99,,2013-05-26 08:02:00,
2013-05-26 04:12:00,66.0,-99.9,30.15,SW,236,3.0,3.0,-999,-99.99,,,-99.99,,2013-05-26 08:12:00,
2013-05-26 04:22:00,66.0,-99.9,30.15,North,-999,-999.0,-999.0,-999,-99.99,,,-99.99,,2013-05-26 08:22:00,
2013-05-26 04:32:00,66.0,-99.9,30.16,North,-999,-999.0,-999.0,-999,-99.99,,,-99.99,,2013-05-26 08:32:00,
2013-05-26 04:42:00,66.0,-99.9,30.16,North,-999,-999.0,-999.0,-999,-99.99,,,-99.99,,2013-05-26 08:42:00,
2013-05-26 04:53:00,-999.0,-99.9,30.16,West,264,1.0,3.0,-999,-99.99,,,-99.99,,2013-05-26 08:53:00,
2013-05-26 05:01:00,-999.0,-99.9,30.16,WNW,289,2.0,3.0,-999,-99.99,,,-99.99,,2013-05-26 09:01:00,
2013-05-26 05:11:00,64.0,-99.9,30.16,North,350,2.0,2.0,-999,-99.99,,,-99.99,,2013-05-26 09:11:00,
2013-05-26 05:22:00,-999.0,-99.9,30.16,NNW,342,2.0,2.0,-999,-99.99,,,-99.99,,2013-05-26 09:22:00,
2013-05-26 05:34:00,63.0,-99.9,30.16,North,-999,-999.0,-999.0,-999,-99.99,,,-99.99,,2013-05-26 09:34:00,
2013-05-26 05:43:00,63.0,-99.9,30.16,North,-999,-999.0,-999.0,-999,-99.99,,,-99.99,,2013-05-26 09:43:00,
2013-05-26 05:53:00,-999.0,-99.9,30.16,WNW,290,1.0,2.0,-999,-99.99,,,-99.99,,2013-05-26 09:53:00,
2013-05-26 06:03:00,64.0,-99.9,30.17,North,-999,-999.0,-999.0,-999,-99.99,,,-99.99,,2013-05-26 10:03:00,
2013-05-26 06:12:00,63.0,-99.9,30.17,NW,316,2.0,5.0,-999,-99.99,,,-99.99,,2013-05-26 10:12:00,
2013-05-26 06:23:00,-999.0,-99.9,30.18,NNW,338,3.0,5.0,-999,-99.99,,,-99.99,,2013-05-26 10:23:00,
2013-05-26 06:33:00,-999.0,-99.9,30.19,NNW,332,2.0,5.0,-999,-99.99,,,-99.99,,2013-05-26 10:33:00,
2013-05-26 06:42:00,63.0,-99.9,30.19,North,-999,-999.0,-999.0,-999,-99.99,,,-99.99,,2013-05-26 10:42:00,
2013-05-26 06:52:00,63.0,-99.9,30.19,North,-999,-999.0,-999.0,-999,-99.99,,,-99.99,,2013-05-26 10:52:00,
2013-05-26 07:03:00,62.0,-99.9,30.20,North,-999,-999.0,-999.0,-999,-99.99,,,-99.99,,2013-05-26 11:03:00,
2013-05-26 07:12:00,-999.0,-99.9,30.20,NNW,342,5.0,7.0,-999,-99.99,,,-99.99,,2013-05-26 11:12:00,
2013-05-26 07:22:00,63.0,-99.9,30.20,North,-999,-999.0,-999.0,-999,-99.99,,,-99.99,,2013-05-26 11:22:00,
2013-05-26 07:33:00,-999.0,-99.9,30.21,North,350,6.0,8.0,-999,-99.99,,,-99.99,,2013-05-26 11:33:00,
2013-05-26 07:43:00,-999.0,-99.9,30.20,North,10,5.0,7.0,-999,-99.99,,,-99.99,,2013-05-26 11:43:00,
2013-05-26 07:52:00,-999.0,-99.9,30.21,North,351,5.0,6.0,-999,-99.99,,,-99.99,,2013-05-26 11:52:00,
2013-05-26 08:02:00,63.0,-99.9,30.21,North,-999,-999.0,-999.0,-999,-99.99,,,-99.99,,2013-05-26 12:02:00,
2013-05-26 08:12:00,-999.0,-99.9,30.21,NNW,347,4.0,7.0,-999,-99.99,,,-99.99,,2013-05-26 12:12:00,
2013-05-26 08:22:00,63.0,-99.9,30.21,North,-999,-999.0,-999.0,-999,-99.99,,,-99.99,,2013-05-26 12:22:00,
2013-05-26 08:32:00,-999.0,-99.9,30.21,North,11,5.0,7.0,-999,-99.99,,,-99.99,,2013-05-26 12:32:00,
2013-05-26 08:42:00,63.0,-99.9,30.21,North,-999,-999.0,-999.0,-999,-99.99,,,-99.99,,2013-05-26 12:42:00,
2013-05-26 08:52:00,-999.0,-99.9,30.21,NNE,17,6.0,8.0,-999,-99.99,,,-99.99,,2013-05-26 12:52:00,
2013-05-26 09:02:00,63.0,-99.9,30.22,North,-999,-999.0,-999.0,-999,-99.99,,,-99.99,,2013-05-26 13:02:00,
2013-05-26 09:11:00,63.0,-99.9,30.22,North,-999,-999.0,-999.0,-999,-99.99,,,-99.99,,2013-05-26 13:11:00,
2013-05-26 09:22:00,-999.0,-99.9,30.22,North,11,3.0,4.0,-999,-99.99,,,-99.99,,2013-05-26 13:22:00,
2013-05-26 09:32:00,65.0,-99.9,30.22,North,-999,-999.0,-999.0,-999,-99.99,,,-99.99,,2013-05-26 13:32:00,
2013-05-26 09:42:00,-999.0,-99.9,30.22,North,10,4.0,5.0,-999,-99.99,,,-99.99,,2013-05-26 13:42:00,
2013-05-26 09:52:00,66.0,-99.9,30.22,North,-999,-999.0,-999.0,-999,-99.99,,,-99.99,,2013-05-26 13:52:00,
2013-05-26 10:02:00,-999.0,-99.9,30.22,NNE,12,5.0,6.0,-999,-99.99,,,-99.99,,2013-05-26 14:02:00,
2013-05-26 10:11:00,67.0,-99.9,30.23,North,-999,-999.0,-999.0,-999,-99.99,,,-99.99,,2013-05-26 14:11:00,
2013-05-26 10:22:00,68.0,-99.9,30.23,North,-999,-999.0,-999.0,-999,-99.99,,,-99.99,,2013-05-26 14:22:00,
2013-05-26 10:32:00,68.0,-99.9,30.23,North,-999,-999.0,-999.0,-999,-99.99,,,-99.99,,2013-05-26 14:32:00,
2013-05-26 10:42:00,68.0,-99.9,30.23,North,3,4.0,7.0,-999,-99.99,,,-99.99,,2013-05-26 14:42:00,
2013-05-26 10:52:00,69.0,-99.9,30.23,North,-999,-999.0,-999.0,-999,-99.99,,,-99.99,,2013-05-26 14:52:00,
2013-05-26 11:02:00,69.0,-99.9,30.23,North,-999,-999.0,-999.0,-999,-99.99,,,-99.99,,2013-05-26 15:02:00,
2013-05-26 11:12:00,-999.0,-99.9,30.23,NNE,16,3.0,5.0,-999,-99.99,,,-99.99,,2013-05-26 15:12:00,
2013-05-26 11:22:00,-999.0,-99.9,30.22,North,4,2.0,4.0,-999,-99.99,,,-99.99,,2013-05-26 15:22:00,
2013-05-26 11:33:00,-999.0,-99.9,30.22,NE,41,1.0,2.0,-999,-99.99,,,-99.99,,2013-05-26 15:33:00,
2013-05-26 11:43:00,71.0,-99.9,30.22,SSE,152,1.0,2.0,-999,-99.99,,,-99.99,,2013-05-26 15:43:00,
2013-05-26 11:53:00,-999.0,-99.9,30.23,South,187,5.0,6.0,-999,-99.99,,,-99.99,,2013-05-26 15:53:00,
2013-05-26 12:03:00,-999.0,-99.9,30.23,SSW,195,3.0,5.0,-999,-99.99,,,-99.99,,2013-05-26 16:03:00,
2013-05-26 12:12:00,-999.0,-99.9,30.23,South,189,5.0,6.0,-999,-99.99,,,-99.99,,2013-05-26 16:12:00,
2013-05-26 12:23:00,69.0,-99.9,30.23,North,-999,-999.0,-999.0,-999,-99.99,,,-99.99,,2013-05-26 16:23:00,
2013-05-26 12:33:00,70.0,-99.9,30.23,North,-999,-999.0,-999.0,-999,-99.99,,,-99.99,,2013-05-26 16:33:00,
2013-05-26 12:43:00,70.0,-99.9,30.22,North,-999,-999.0,-999.0,-999,-99.99,,,-99.99,,2013-05-26 16:43:00,
2013-05-26 12:53:00,69.0,-99.9,30.22,North,-999,-999.0,-999.0,-999,-99.99,,,-99.99,,2013-05-26 16:53:00,
2013-05-26 13:02:00,69.0,-99.9,30.22,North,-999,-999.0,-999.0,-999,-99.99,,,-99.99,,2013-05-26 17:02:00,
2013-05-26 13:12:00,69.0,-99.9,30.22,North,-999,-999.0,-999.0,-999,-99.99,,,-99.99,,2013-05-26 17:12:00,
2013-05-26 13:23:00,69.0,-99.9,30.22,North,-999,-999.0,-999.0,-999,-99.99,,,-99.99,,2013-05-26 17:23:00,
2013-05-26 13:32:00,68.0,-99.9,30.22,North,-999,-999.0,-999.0,-999,-99.99,,,-99.99,,2013-05-26 17:32:00,
2013-05-26 13:42:00,-999.0,-99.9,30.21,North,5,11.0,15.0,-999,-99.99,,,-99.99,,2013-05-26 17:42:00,
2013-05-26 13:52:00,-999.0,-99.9,30.21,NNW,343,10.0,14.0,-999,-99.99,,,-99.99,,2013-05-26 17:52:00,
2013-05-26 14:01:00,69.0,-99.9,30.20,North,-999,-999.0,-999.0,-999,-99.99,,,-99.99,,2013-05-26 18:01:00,
2013-05-26 14:12:00,70.0,-99.9,30.20,NE,34,7.0,11.0,-999,-99.99,,,-99.99,,2013-05-26 18:12:00,
2013-05-26 14:22:00,70.0,-99.9,30.20,North,-999,-999.0,-999.0,-999,-99.99,,,-99.99,,2013-05-26 18:22:00,
2013-05-26 14:32:00,-999.0,-99.9,30.20,East,90,8.0,11.0,-999,-99.99,,,-99.99,,2013-05-26 18:32:00,
2013-05-26 14:42:00,-999.0,-99.9,30.20,ESE,123,8.0,10.0,-999,-99.99,,,-99.99,,2013-05-26 18:42:00,
2013-05-26 14:52:00,-999.0,-99.9,30.20,ESE,110,8.0,11.0,-999,-99.99,,,-99.99,,2013-05-26 18:52:00,
2013-05-26 15:01:00,69.0,-99.9,30.20,North,-999,-999.0,-999.0,-999,-99.99,,,-99.99,,2013-05-26 19:01:00,
2013-05-26 15:11:00,69.0,-99.9,30.19,SE,136,9.0,12.0,-999,-99.99,,,-99.99,,2013-05-26 19:11:00,
2013-05-26 15:22:00,69.0,-99.9,30.19,North,-999,-999.0,-999.0,-999,-99.99,,,-99.99,,2013-05-26 19:22:00,
2013-05-26 15:32:00,-999.0,-99.9,30.19,SE,135,8.0,12.0,-999,-99.99,,,-99.99,,2013-05-26 19:32:00,
2013-05-26 15:42:00,-999.0,-99.9,30.19,SE,129,9.0,12.0,-999,-99.99,,,-99.99,,2013-05-26 19:42:00,
2013-05-26 15:52:00,69.0,-99.9,30.19,North,-999,-999.0,-999.0,-999,-99.99,,,-99.99,,2013-05-26 19:52:00,
2013-05-26 16:02:00,69.0,-99.9,30.18,North,-999,-999.0,-999.0,-999,-99.99,,,-99.99,,2013-05-26 20:02:00,
2013-05-26 16:11:00,69.0,-99.9,30.18,North,-999,-999.0,-999.0,-999,-99.99,,,-99.99,,2013-05-26 20:11:00,
2013-05-26 16:22:00,69.0,-99.9,30.18,North,-999,-999.0,-999.0,-999,-99.99,,,-99.99,,2013-05-26 20:22:00,
2013-05-26 16:32:00,-999.0,-99.9,30.18,SE,138,8.0,11.0,-999,-99.99,,,-99.99,,2013-05-26 20:32:00,
2013-05-26 16:42:00,-999.0,-99.9,30.18,SSE,152,8.0,12.0,-999,-99.99,,,-99.99,,2013-05-26 20:42:00,
2013-05-26 16:53:00,-999.0,-99.9,30.18,SE,146,8.0,9.0,-999,-99.99,,,-99.99,,2013-05-26 20:53:00,
2013-05-26 17:02:00,-999.0,-99.9,30.18,SE,145,7.0,13.0,-999,-99.99,,,-99.99,,2013-05-26 21:02:00,
2013-05-26 17:12:00,-999.0,-99.9,30.19,SSE,167,5.0,10.0,-999,-99.99,,,-99.99,,2013-05-26 21:12:00,
2013-05-26 17:22:00,-999.0,-99.9,30.18,South,174,8.0,11.0,-999,-99.99,,,-99.99,,2013-05-26 21:22:00,
2013-05-26 17:33:00,69.0,-99.9,30.18,North,-999,-999.0,-999.0,-999,-99.99,,,-99.99,,2013-05-26 21:33:00,
2013-05-26 17:43:00,69.0,-99.9,30.18,South,169,7.0,10.0,-999,-99.99,,,-99.99,,2013-05-26 21:43:00,
2013-05-26 17:53:00,-999.0,-99.9,30.19,SE,143,6.0,9.0,-999,-99.99,,,-99.99,,2013-05-26 21:53:00,
2013-05-26 18:03:00,-999.0,-99.9,30.19,South,186,8.0,9.0,-999,-99.99,,,-99.99,,2013-05-26 22:03:00,
2013-05-26 18:12:00,69.0,-99.9,30.19,North,-999,-999.0,-999.0,-999,-99.99,,,-99.99,,2013-05-26 22:12:00,
2013-05-26 18:23:00,69.0,-99.9,30.19,North,-999,-999.0,-999.0,-999,-99.99,,,-99.99,,2013-05-26 22:23:00,
2013-05-26 18:33:00,-999.0,-99.9,30.19,SSE,151,6.0,9.0,-999,-99.99,,,-99.99,,2013-05-26 22:33:00,
2013-05-26 18:42:00,-999.0,-99.9,30.19,SSE,165,4.0,7.0,-999,-99.99,,,-99.99,,2013-05-26 22:42:00,
2013-05-26 18:53:00,69.0,-99.9,30.19,North,-999,-999.0,-999.0,-999,-99.99,,,-99.99,,2013-05-26 22:53:00,
2013-05-26 19:02:00,-999.0,-99.9,30.19,ESE,114,3.0,9.0,-999,-99.99,,,-99.99,,2013-05-26 23:02:00,
2013-05-26 19:12:00,-999.0,-99.9,30.19,SE,125,6.0,9.0,-999,-99.99,,,-99.99,,2013-05-26 23:12:00,
2013-05-26 19:22:00,-999.0,-99.9,30.19,SE,124,6.0,8.0,-999,-99.99,,,-99.99,,2013-05-26 23:22:00,
2013-05-26 19:32:00,-999.0,-99.9,30.19,SSE,156,6.0,8.0,-999,-99.99,,,-99.99,,2013-05-26 23:32:00,
2013-05-26 19:43:00,-999.0,-99.9,30.19,SE,131,7.0,9.0,-999,-99.99,,,-99.99,,2013-05-26 23:43:00,
2013-05-26 19:52:00,-999.0,-99.9,30.19,SE,131,3.0,6.0,-999,-99.99,,,-99.99,,2013-05-26 23:52:00,
2013-05-26 20:02:00,67.0,-99.9,30.19,North,-999,-999.0,-999.0,-999,-99.99,,,-99.99,,2013-05-27 00:02:00,
2013-05-26 20:11:00,67.0,-99.9,30.19,North,-999,-999.0,-999.0,-999,-99.99,,,-99.99,,2013-05-27 00:11:00,
2013-05-26 20:22:00,67.0,-99.9,30.20,North,-999,-999.0,-999.0,-999,-99.99,,,-99.99,,2013-05-27 00:22:00,
2013-05-26 20:32:00,67.0,-99.9,30.20,North,-999,-999.0,-999.0,-999,-99.99,,,-99.99,,2013-05-27 00:32:00,
2013-05-26 20:42:00,-999.0,-99.9,30.20,SSE,152,5.0,6.0,-999,-99.99,,,-99.99,,2013-05-27 00:42:00,
2013-05-26 20:52:00,67.0,-99.9,30.20,North,-999,-999.0,-999.0,-999,-99.99,,,-99.99,,2013-05-27 00:52:00,
2013-05-26 21:01:00,-999.0,-99.9,30.21,SSE,158,5.0,5.0,-999,-99.99,,,-99.99,,2013-05-27 01:01:00,
2013-05-26 21:11:00,-999.0,-99.9,30.21,SSE,149,5.0,6.0,-999,-99.99,,,-99.99,,2013-05-27 01:11:00,
2013-05-26 21:22:00,-999.0,-99.9,30.21,SSE,155,4.0,6.0,-999,-99.99,,,-99.99,,2013-05-27 01:22:00,
2013-05-26 21:32:00,66.0,-99.9,30.22,North,-999,-999.0,-999.0,-999,-99.99,,,-99.99,,2013-05-27 01:32:00,
2013-05-26 21:42:00,-999.0,-99.9,30.22,SE,134,4.0,5.0,-999,-99.99,,,-99.99,,2013-05-27 01:42:00,
2013-05-26 21:52:00,67.0,-99.9,30.22,North,-999,-999.0,-999.0,-999,-99.99,,,-99.99,,2013-05-27 01:52:00,
2013-05-26 22:02:00,66.0,-99.9,30.22,North,-999,-999.0,-999.0,-999,-99.99,,,-99.99,,2013-05-27 02:02:00,
2013-05-26 22:11:00,-999.0,-99.9,30.23,ESE,117,3.0,3.0,-999,-99.99,,,-99.99,,2013-05-27 02:11:00,
2013-05-26 22:22:00,-999.0,-99.9,30.23,SE,140,3.0,5.0,-999,-99.99,,,-99.99,,2013-05-27 02:22:00,
2013-05-26 22:32:00,-999.0,-99.9,30.23,ESE,108,3.0,4.0,-999,-99.99,,,-99.99,,2013-05-27 02:32:00,
2013-05-26 22:43:00,66.0,-99.9,30.23,SE,130,3.0,5.0,-999,-99.99,,,-99.99,,2013-05-27 02:43:00,
2013-05-26 22:52:00,65.0,-99.9,30.24,North,-999,-999.0,-999.0,-999,-99.99,,,-99.99,,2013-05-27 02:52:00,
2013-05-26 23:02:00,66.0,-99.9,30.24,North,-999,-999.0,-999.0,-999,-99.99,,,-99.99,,2013-05-27 03:02:00,
2013-05-26 23:11:00,66.0,-99.9,30.24,North,-999,-999.0,-999.0,-999,-99.99,,,-99.99,,2013-05-27 03:11:00,
2013-05-26 23:22:00,-999.0,-99.9,30.24,SE,141,5.0,6.0,-999,-99.99,,,-99.99,,2013-05-27 03:22:00,
2013-05-26 23:33:00,-999.0,-99.9,30.24,SE,137,5.0,5.0,-999,-99.99,,,-99.99,,2013-05-27 03:33:00,
2013-05-26 23:43:00,-999.0,-99.9,30.24,SE,139,5.0,6.0,-999,-99.99,,,-99.99,,2013-05-27 03:43:00,
2013-05-26 23:54:00,66.0,-99.9,30.24,North,-999,-999.0,-999.0,-999,-99.99,,,-99.99,,2013-05-27 03:54:00,